• Join FlightAware (Why Join?)
  • Login
  • US Flag GB Flag 
00:02 EST


 

Airport Tracker/Info


-or-


 

Live Flight TrackerFlight Track Log ✈ N51EM ✈ 05-Dec-2013 ✈ KSWF - KLNS

Flight Track Log - Related Links

Times and Time Zones

All times are in EST time to prevent confusion due to time zone crossing. See the N51EM flight status page for this flight to view local times or setup timezone preferences in your user account.

Time Position Orientation Groundspeed Altitude Reporting Facility
EST Latitude Longitude Course Direction KTS MPH feet Rate Location/Type
18:16 41.5039 -74.0658 81° East 202 232 900  Level Boston Center
18:17 41.5167 -73.9578 81° East 280 322 4,300 1,860 Climbing Boston Center
18:18 41.5939 -73.9358 12° North 297 342 4,800 900 Climbing Boston Center
18:19 41.6625 -73.9772 336° Northwest 250 288 6,200 1,920 Climbing Boston Center
18:20 41.7261 -74.0183 334° Northwest 259 298 8,900 2,640 Climbing Boston Center
18:21 41.7250 -74.1000 269° West 222 255 11,800 2,820 Climbing Boston Center
18:22 41.7083 -74.1956 257° West 247 284 14,700 1,980 Climbing Boston Center
18:23 41.6922 -74.2953 258° West 280 322 15,900 600 Climbing Boston Center
18:24 41.6708 -74.4106 256° West 320 368 16,000  Climbing Boston Center
18:25 41.6503 -74.5322 257° West 313 360 16,000  Level Boston Center
18:26 41.6303 -74.6414 256° West 305 351 16,000  Level Boston Center
18:27 41.6106 -74.7544 257° West 312 359 16,000  Level Boston Center
18:28 41.5853 -74.8922 256° West 315 362 16,000 -60 Level New York Center
18:29 41.5669 -74.9992 257° West 325 374 15,900 -60 Descending New York Center
18:30 41.5461 -75.1144 256° West 330 380 15,900  Level New York Center
18:31 41.5206 -75.2456 255° West 330 380 15,900  Level New York Center
18:32 41.4992 -75.3633 256° West 336 387 15,900  Level New York Center
18:33 41.4742 -75.4750 253° West 336 387 15,900  Level New York Center
18:34 41.3989 -75.5306 209° Southwest 315 362 15,900  Level New York Center
18:35 41.3136 -75.5828 205° Southwest 329 379 15,900  Level New York Center
18:36 41.2217 -75.6394 205° Southwest 340 391 15,900 -360 Level New York Center
18:37 41.1319 -75.6908 203° Southwest 340 391 15,200 -1,020 Descending New York Center
18:38 41.0444 -75.7450 205° Southwest 345 397 13,900 -1,200 Descending New York Center
18:39 40.9589 -75.7939 203° Southwest 345 397 12,900 -720 Descending New York Center
18:40 40.8756 -75.8425 204° Southwest 345 397 12,500 -900 Descending New York Center
18:41 40.8072 -75.8842 205° Southwest 320 368 11,100 -1,500 Descending New York Center
18:42 40.7322 -75.9333 206° Southwest 297 342 9,500 -1,140 Descending New York Center
18:43 40.6636 -75.9719 203° Southwest 272 313 8,900 -300 Descending New York Center
18:44 40.5994 -76.0108 205° Southwest 265 305 8,900  Level New York Center
18:45 40.5333 -76.0467 202° Southwest 265 305 8,900  Level New York Center
18:46 40.4692 -76.0853 205° Southwest 260 299 8,900  Level New York Center
18:47 40.4025 -76.1294 207° Southwest 265 305 8,900  Level New York Center
18:48 40.3506 -76.1689 210° Southwest 260 299 8,900 -720 Level New York Center
18:49 40.2997 -76.2358 225° Southwest 248 285 7,500 -1,320 Descending New York Center
18:50 40.2575 -76.2869 223° Southwest 231 266 6,300 -780 Descending New York Center
18:51 40.2178 -76.3381 225° Southwest 231 266 6,000 -660 Descending New York Center
18:52 40.1767 -76.4108 234° Southwest 231 266 5,000 -1,200 Descending New York Center
18:53 40.1522 -76.4850 247° West 236 272 3,700 -960 Descending New York Center
18:54 40.1258 -76.5589 245° Southwest 230 265 3,100 -360 Descending New York Center
18:55 40.0892 -76.5800 204° Southwest 159 183 3,000 -60 Descending New York Center
18:56 40.0467 -76.5983 198° South 159 183 3,000 3,000 Level New York Center
18:57 40.0042 -76.6136 195° South 159 183 9,000 3,000 Climbing New York Center
18:58 39.9617 -76.6319 198° South 159 183 9,000  Level New York Center
19:00 40.0036 -76.5380 60° Northeast  Level FlightAware Approximate
19:07 40.1167 -76.2833 North  Level FlightAware Approximate
19:08 40.1224 -76.2944 North  Level Estimated
19:09 40.1224 -76.2944 North  Level Estimated
19:10 40.1224 -76.2944 North  Level Estimated
19:11 40.1224 -76.2944 North  Level Estimated
19:12 40.1224 -76.2944 North  Level Estimated
19:13 40.1224 -76.2944 North  Level Estimated